Change the Weather History Date:

Tuesday, February 26, 2013

  Actual Average (KMGW) Record (KMGW)
Temperature  
Mean Temperature 29 °F 36 °F  
Max Temperature 32 °F 46 °F 77 °F (2000)
Min Temperature 26 °F 27 °F -5 °F (1963)
Degree Days  
Heating Degree Days 36 28  
Month to date heating degree days 806  
Since 1 July heating degree days 3833  
Cooling Degree Days 0 0  
Month to date cooling degree days 0  
Year to date cooling degree days 0  
Moisture  
Dew Point 25 °F    
Average Humidity 86    
Maximum Humidity 100    
Minimum Humidity 64    
Precipitation  
Precipitation 0.00 in 0.10 in 0.69 in (1961)
Month to date precipitation 2.40  
Year to date precipitation 5.21  
Sea Level Pressure  
Sea Level Pressure 29.78 in    
Wind  
Wind Speed 17 mph (SE)    
Max Wind Speed 31 mph    
Max Gust Speed 41 mph    
Visibility 5 miles    
Events Fog    
T = Trace of Precipitation, MM = Missing Value Source: NWS Daily Summary

Daily Weather History Graph

Daily Weather History Graph

Search for Another Location

Airport or City:

Trip Planner

Search our weather history database for the weather conditions in past years. The results will help you decide how hot, cold, wet, or windy it might be!

Date:

Astronomy

Feb. 26, 2013 Rise Set
Actual Time 6:54 AM EST 6:06 PM EST
Civil Twilight 6:27 AM EST 6:33 PM EST
Nautical Twilight 5:56 AM EST 7:04 PM EST
Astronomical Twilight 5:24 AM EST 7:36 PM EST
Moon 7:20 PM EST (2/26) 6:56 AM EST (2/26)
Length of Visible Light 12h 06m
Length of Day
11h 12m
Full, 99% of the Moon is Illuminated
Feb 26
Full
Mar 4
Last Quarter
Mar 11
New
Mar 19
First Quarter
Mar 27
Full

Hourly Weather History & Observations

Time (EST) Temp. Windchill Dew Point Humidity Pressure Visibility Wind Dir Wind Speed Gust Speed Precip Events Conditions
12:00 AM 28.4 °F 15.8 °F 19.4 °F 69% 29.99 in 10.0 mi SE 18.4 mph - N/A   Clear
12:20 AM 28.4 °F 15.8 °F 19.4 °F 69% 29.99 in 10.0 mi SE 18.4 mph 24.2 mph N/A   Clear
12:40 AM 28.4 °F 14.7 °F 19.4 °F 69% 29.99 in 10.0 mi SE 21.9 mph 26.5 mph N/A   Clear
1:00 AM 28.4 °F 15.1 °F 19.4 °F 69% 29.99 in 10.0 mi SE 20.7 mph 27.6 mph N/A   Clear
1:20 AM 28.4 °F 15.1 °F 19.4 °F 69% 30.00 in 10.0 mi SE 20.7 mph 25.3 mph N/A   Clear
1:40 AM 28.4 °F 14.7 °F 17.6 °F 64% 30.01 in 10.0 mi SE 21.9 mph 26.5 mph N/A   Clear
2:00 AM 28.4 °F 16.2 °F 17.6 °F 64% 30.00 in 10.0 mi SE 17.3 mph 23.0 mph N/A   Clear
2:20 AM 28.4 °F 14.7 °F 19.4 °F 69% 29.99 in 10.0 mi SE 21.9 mph 26.5 mph N/A   Clear
2:40 AM 28.4 °F 16.2 °F 17.6 °F 64% 29.98 in 10.0 mi SE 17.3 mph 25.3 mph N/A   Clear
3:20 AM 28.4 °F 15.1 °F 17.6 °F 64% 29.96 in 10.0 mi SE 20.7 mph 27.6 mph N/A   Clear
3:40 AM 28.4 °F 14.4 °F 17.6 °F 64% 29.95 in 10.0 mi SE 23.0 mph 28.8 mph N/A   Clear
4:00 AM 28.4 °F 14.4 °F 17.6 °F 64% 29.94 in 10.0 mi SE 23.0 mph 33.4 mph N/A   Clear
4:20 AM 28.4 °F 14.7 °F 17.6 °F 64% 29.93 in 10.0 mi SE 21.9 mph 28.8 mph N/A   Clear
5:00 AM 28.4 °F 15.4 °F 19.4 °F 69% 29.92 in 10.0 mi SE 19.6 mph 26.5 mph N/A   Clear
5:20 AM 28.4 °F 14.7 °F 17.6 °F 64% 29.94 in 10.0 mi SE 21.9 mph 29.9 mph N/A   Clear
5:40 AM 28.4 °F 15.1 °F 19.4 °F 69% 29.94 in 10.0 mi SE 20.7 mph 28.8 mph N/A   Clear
6:00 AM 28.4 °F 15.1 °F 19.4 °F 69% 29.94 in 10.0 mi SE 20.7 mph 26.5 mph N/A   Clear
6:20 AM 28.4 °F 15.8 °F 19.4 °F 69% 29.93 in 10.0 mi SE 18.4 mph 27.6 mph N/A   Clear
7:00 AM 28.4 °F 15.1 °F 19.4 °F 69% 29.92 in 10.0 mi SE 20.7 mph 28.8 mph N/A   Clear
7:20 AM 26.6 °F 12.4 °F 19.4 °F 74% 29.93 in 10.0 mi SE 21.9 mph 29.9 mph N/A   Clear
7:40 AM 28.4 °F 15.4 °F 19.4 °F 69% 29.92 in 10.0 mi SE 19.6 mph 25.3 mph N/A   Clear
8:00 AM 28.4 °F 14.4 °F 19.4 °F 69% 29.92 in 10.0 mi ESE 23.0 mph 29.9 mph N/A   Scattered Clouds
8:20 AM 28.4 °F 14.7 °F 19.4 °F 69% 29.92 in 10.0 mi SE 21.9 mph 32.2 mph N/A   Scattered Clouds
8:40 AM 28.4 °F 13.8 °F 19.4 °F 69% 29.92 in 10.0 mi SE 25.3 mph 34.5 mph N/A   Mostly Cloudy
9:00 AM 28.4 °F 14.1 °F 19.4 °F 69% 29.92 in 10.0 mi SE 24.2 mph 34.5 mph N/A   Overcast
9:20 AM 28.4 °F 12.5 °F 19.4 °F 69% 29.90 in 10.0 mi ESE 31.1 mph 39.1 mph N/A   Overcast
10:00 AM 28.4 °F 12.7 °F 21.2 °F 74% 29.88 in 10.0 mi SE 29.9 mph 39.1 mph N/A   Overcast
10:20 AM 28.4 °F 12.7 °F 21.2 °F 74% 29.88 in 10.0 mi ESE 29.9 mph 38.0 mph N/A   Overcast
10:40 AM 28.4 °F 13.0 °F 21.2 °F 74% 29.88 in 10.0 mi ESE 28.8 mph 41.4 mph N/A   Overcast
11:00 AM - - - %  in - Calm Calm - -  
11:20 AM 28.4 °F 13.8 °F 26.6 °F 93% 29.88 in 4.0 mi ESE 25.3 mph 34.5 mph N/A   Overcast
11:40 AM 28.4 °F 14.7 °F 26.6 °F 93% 29.86 in 4.0 mi ESE 21.9 mph 32.2 mph N/A   Overcast
12:00 PM 28.4 °F 15.1 °F 28.4 °F 100% 29.85 in 5.0 mi ESE 20.7 mph 35.7 mph N/A   Overcast
12:20 PM 28.4 °F 15.4 °F 28.4 °F 100% 29.84 in 3.0 mi ESE 19.6 mph 29.9 mph N/A   Overcast
12:40 PM 28.4 °F 14.4 °F 28.4 °F 100% 29.82 in 2.5 mi ESE 23.0 mph 31.1 mph N/A   Overcast
1:00 PM 28.4 °F 14.7 °F 28.4 °F 100% 29.80 in 1.5 mi ESE 21.9 mph 29.9 mph N/A   Overcast
1:20 PM 28.4 °F 15.4 °F 28.4 °F 100% 29.76 in 1.0 mi ESE 19.6 mph 27.6 mph N/A   Mostly Cloudy
2:00 PM 28.4 °F 17.0 °F 28.4 °F 100% 29.74 in 3.0 mi ESE 15.0 mph 26.5 mph N/A   Overcast
2:20 PM 28.4 °F 18.0 °F 28.4 °F 100% 29.71 in 1.0 mi ESE 12.7 mph 20.7 mph N/A   Overcast
2:40 PM 28.4 °F 18.0 °F 28.4 °F 100% 29.68 in 2.0 mi ESE 12.7 mph 18.4 mph N/A   Overcast
3:00 PM 28.4 °F 18.5 °F 28.4 °F 100% 29.67 in 0.2 mi ESE 11.5 mph 16.1 mph N/A Fog Light Freezing Fog
3:20 PM 28.4 °F 18.5 °F 28.4 °F 100% 29.65 in 0.2 mi ESE 11.5 mph 16.1 mph N/A Fog Light Freezing Fog
3:40 PM 28.4 °F 18.0 °F 28.4 °F 100% 29.63 in 0.2 mi ESE 12.7 mph - N/A Fog Light Freezing Fog
4:00 PM 28.4 °F 18.0 °F 28.4 °F 100% 29.61 in 0.2 mi ESE 12.7 mph 18.4 mph N/A Fog Light Freezing Fog
4:20 PM 28.4 °F 18.0 °F 28.4 °F 100% 29.60 in 0.2 mi ESE 12.7 mph 17.3 mph N/A Fog Light Freezing Fog
4:40 PM 30.2 °F 21.3 °F 30.2 °F 100% 29.60 in 1.0 mi ESE 10.4 mph 18.4 mph N/A   Overcast
5:00 PM 30.2 °F 21.3 °F 30.2 °F 100% 29.59 in 0.8 mi ESE 10.4 mph - N/A   Overcast
5:20 PM 30.2 °F 21.9 °F 30.2 °F 100% 29.57 in 0.2 mi ESE 9.2 mph - N/A Fog Light Freezing Fog
5:40 PM 30.2 °F 21.9 °F 30.2 °F 100% 29.56 in 0.5 mi ESE 9.2 mph - N/A Fog Light Freezing Fog
6:00 PM 30.2 °F - 30.2 °F 100% 29.56 in 0.8 mi Calm Calm - N/A   Overcast
6:20 PM 30.2 °F - 30.2 °F 100% 29.54 in 4.0 mi Calm Calm - N/A   Overcast
6:40 PM 30.2 °F - 30.2 °F 100% 29.58 in 3.0 mi Calm Calm - N/A   Overcast
7:00 PM 30.2 °F - 30.2 °F 100% 29.61 in 4.0 mi Calm Calm - N/A   Overcast
7:20 PM 30.2 °F - 30.2 °F 100% 29.62 in 1.5 mi Calm Calm - N/A   Overcast
7:40 PM 30.2 °F - 30.2 °F 100% 29.61 in 1.5 mi Calm Calm - N/A   Overcast
8:00 PM 32.0 °F - 32.0 °F 100% 29.58 in 1.8 mi Calm Calm - N/A   Overcast
8:20 PM 32.0 °F - 32.0 °F 100% 29.59 in 4.0 mi Calm Calm - N/A   Overcast
8:40 PM 32.0 °F - 32.0 °F 100% 29.58 in 2.5 mi Calm Calm - N/A   Overcast
9:00 PM 32.0 °F - 32.0 °F 100% 29.60 in 0.5 mi Calm Calm - N/A Fog Light Freezing Fog
9:20 PM 32.0 °F - 32.0 °F 100% 29.60 in 0.5 mi Calm Calm - N/A Fog Light Freezing Fog
9:40 PM 32.0 °F - 32.0 °F 100% 29.58 in 0.8 mi Calm Calm - N/A   Overcast
10:00 PM 32.0 °F - 32.0 °F 100% 29.58 in 0.5 mi Calm Calm - N/A Fog Fog
10:20 PM 32.0 °F - 32.0 °F 100% 29.58 in 0.5 mi Calm Calm - N/A Fog Fog
10:45 PM 32.0 °F - 32.0 °F 100% 29.57 in 0.5 mi Calm Calm - N/A Fog Light Freezing Fog
11:05 PM 32.0 °F - 32.0 °F 100% 29.56 in 0.8 mi Calm Calm - N/A   Overcast
11:25 PM 32.0 °F - 32.0 °F 100% 29.56 in 0.5 mi Calm Calm - N/A Fog Light Freezing Fog
11:45 PM 32.0 °F - 32.0 °F 100% 29.55 in 0.5 mi Calm Calm - N/A Fog Light Freezing Fog